www.pogodaiklimat.ru

Погода и климат >> Архив погоды >> Канада >> St. John's


ПОГОДА в St. John's

  • Прогноз погоды в St. John's
  • Монитор погоды в St. John's
  • Климат города

АРХИВ ПОГОДЫ в St. John's

Время (UTC), дата Ветер
(напр.,м/с)
 
Видим.   Явления Облачность Т
(С)
Тd
(С)
f
(%)
Тe
(С)
Тes
(С)
Комфортность P
(гПа)
Po
(гПа)
Тmin
(С)
Tmax
(С)
R
(мм)
R24
(мм)
S
(см)
18 16.06 Ю 5 24 км ясно +25.2 +13.2 47 +27 +36 жарко 1009.2 996.1 +4.1 +25.6
21 16.06 ЮЗ 4 24 км 3/0
[]
+24.4 +11.2 44 +26 +30 жарко 1009.6 996.5
00 17.06 В 5 24 км 6/0
[Ac As Ci fib]
+16.7 +10.4 66 +16 +16 1012.4 999.3 +4.1 +25.6
03 17.06 СВ 2 24 км 4/0
[]
+12.6 +8.9 78 +12 +12 1014.9 1001.8
06 17.06 В 2 24 км 6/0
[Ac As]
+9.1 +5.7 79 +8 +8 1016.5 1003.4 +4.1 +25.6 0
09 17.06 СВ 4 24 км 3/0
[]
+8.4 +3.2 70 +5 +5 1018.2 1005.0
12 17.06 В 7 24 км 3/0
[Ci fib]
+13.5 +1.4 44 +11 +13 1019.9 1006.7 +7.0 +25.6
15 17.06 В 6 24 км 8/0
[]
+19.3 +3.4 35 +19 +24 1021.1 1007.9
18 17.06 Ю 3 24 км 10/0
[Ci]
+22.0 +5.5 34 +22 +34 комфорт 1020.3 1007.1 +7.0 +22.0
21 17.06 Ю 2 24 км 10/0
[]
+20.1 +3.3 33 +21 +24 комфорт 1020.1 1006.9
00 18.06 Ю 3 24 км 10/0
[Ac As Ci sp]
+14.6 +4.2 50 +14 +14 1020.3 1007.1 +7.0 +22.8
03 18.06 Ю 3 24 км 10/0
[]
+12.1 +6.5 69 +11 +11 1019.2 1006.0
06 18.06 Ю 4 24 км {дождь} 10/10 300 м
[Sc Ac As]
+12.5 +4.2 57 +11 +11 1018.1 1005.0 +7.0 +22.8 0.0 131
09 18.06 Ю 3 24 км 10/10 300 м
[]
+11.3 +6.0 70 +10 +10 1016.1 1002.9
12 18.06 Ю 4 24 км 10/3 300 м
[Sc Ac As]
+12.9 +10.4 85 +11 +12 1013.6 1000.4 +11.3 +22.8
15 18.06 Ю 8 6000 м 10/10 100 м
[]
+12.3 +11.8 97 +9 +9 1010.8 997.6
18 18.06 4800 м слабый дождь н/о +12.3 +11.9 97 +9 +10 1007.6 994.5 +11.3 +15.1 6
21 18.06 Ю 9 4800 м 10/10 50 м
[]
+12.7 +12.6 99 +9 +9 1004.3 991.2
00 19.06 Ю 6 3200 м дымка {гроза, дождь} 10/10 50 м
[Frnb]
+12.0 +11.7 98 +9 +9 1002.8 989.7 +11.3 +15.1 5
03 19.06 ЮЗ 5 3200 м 10/10 100 м
[]
+12.6 +12.4 99 +10 +10 999.9 986.9
06 19.06 ЮЗ 5 3200 м ливневой дождь 10/10 50 м
[]
+12.3 +12.2 99 +10 +10 997.3 984.3 +11.3 +15.1 9 171
09 19.06 СЗ 6 12 км 9/9 100 м
[]
+17.8 +17.5 98 +17 +17 997.1 984.2
12 19.06 СЗ 8 24 км {ливн. осадки} 5/4 300 м
[Sc Ac As]
+19.1 +15.4 79 +20 +21 999.4 986.5 +12.0 +15.1 8
15 19.06 СЗ 8 24 км 6/6 1000 м
[]
+19.5 +11.1 58 +20 +21 1000.6 987.7
18 19.06 СЗ 9 24 км 6/6 1000 м
[Sc]
+21.1 +9.3 47 +22 +23 комфорт 1001.8 988.9 +11.9 +21.4
21 19.06 С 8 24 км 6/6 1500 м
[]
+21.4 +8.4 43 +23 +23 комфорт 1002.8 989.9
00 20.06 СЗ 6 24 км 3/0 2000 м
[Ac trans]
+17.8 +8.2 53 +17 +17 1005.2 992.3 +12.2 +22.1
03 20.06 З 2 24 км ясно +14.3 +8.2 67 +14 +14 1006.7 993.7
06 20.06 ЮВ 1 24 км ясно +9.2 +7.7 90 +8 +8 1007.9 994.8 +9.0 +22.1
09 20.06 СВ 2 24 км 4/0
[]
+5.4 +5.0 97 +3 +3 1008.0 994.9
12 20.06 З 4 24 км 3/0
[Ci fib]
+18.7 +8.2 50 +19 +24 1008.3 995.3 +4.8 +22.1
15 20.06 ЮЗ 6 24 км 3/0
[]
+23.7 +10.5 43 +25 +31 комфорт 1007.4 994.4
18 20.06 Ю 9 24 км 4/1 1500 м
[Sc Ci fib]
+22.0 +8.7 43 +23 +25 комфорт 1005.8 992.8 +4.8 +24.2
21 20.06 ЮЗ 11 24 км 5/5 1500 м
[]
+19.5 +6.4 42 +19 +19 1005.2 992.1
00 21.06 ЮЗ 6 24 км 6/3 1500 м
[Sc Ac As Ci fib]
+15.1 +7.0 58 +14 +14 1004.9 991.9 +4.8 +24.2
03 21.06 ЮЗ 2 24 км 9/0 2000 м
[]
+12.9 +9.3 79 +12 +12 1005.3 992.4
06 21.06 Ю 5 16 км слабый дождь 10/5 1500 м
[Sc Ac As]
+11.2 +10.4 95 +8 +8 1004.9 991.9 +4.8 +24.2 0.0 191
09 21.06 С 1 24 км 9/9 300 м
[]
+11.9 +11.4 97 +12 +12 1005.3 992.3
12 21.06 С 5 24 км {дождь} 4/3 300 м
[Cu hum Ac As]
+15.5 +12.6 83 +14 +17 1006.9 993.9 +11.1 +24.2 2
15 21.06 С 5 24 км 1/1 600 м
[]
+20.1 +6.1 40 +21 +30 комфорт 1007.2 994.2
18 21.06 СЗ 6 24 км 1/1 600 м
[Cu hum]
+21.2 +4.4 33 +21 +28 комфорт 1007.6 994.6 +11.1 +21.7
21 21.06 СЗ 4 24 км 1/1 1000 м
[]
+21.6 +6.0 36 +22 +26 комфорт 1008.1 995.1
00 22.06 С 4 24 км 1/0
[Ac As]
+16.6 +4.5 45 +16 +16 1010.4 997.3 +11.2 +22.0
03 22.06 С 4 24 км ясно +13.0 +4.3 55 +11 +11 1012.8 999.7
06 22.06 С 1 24 км ясно +7.0 +4.8 86 +6 +6 1013.9 1000.7 +7.0 +22.0 20
09 22.06 СВ 1 24 км ясно +5.0 +3.9 93 +4 +4 1015.4 1002.2
12 22.06 С 2 24 км 1/0
[Ac cast]
+16.4 +6.4 52 +17 +23 1017.3 1004.2 +3.7 +22.0
15 22.06 СЗ 2 24 км 1/1 1000 м
[]
+19.7 +3.8 35 +21 +38 комфорт 1017.4 1004.2
18 22.06 Ю 6 24 км 3/0
[Ci fib]
+20.8 +5.8 38 +22 +29 комфорт 1016.9 1003.7 +3.7 +21.1
21 22.06 ЮЗ 8 24 км 1/0
[]
+19.6 +4.3 36 +19 +21 1016.3 1003.1
00 23.06 ЮЗ 4 24 км 3/0
[Ci fib]
+14.1 +3.1 47 +13 +13 1017.4 1004.2 +3.7 +21.1
03 23.06 ЮЗ 5 24 км ясно +11.6 +7.0 73 +9 +9 1018.4 1005.2
06 23.06 Ю 4 24 км ясно +10.1 +9.3 95 +7 +7 1018.4 1005.2 +3.7 +21.1 221
09 23.06 Ю 2 24 км 5/0
[]
+8.4 +8.2 99 +6 +6 1018.4 1005.2
12 23.06 ЮЗ 6 24 км 9/0
[Ci fib]
+15.1 +10.2 73 +14 +16 1018.6 1005.4 +8.4 +21.1
15 23.06 ЮЗ 8 24 км 8/0
[]
+17.7 +6.9 49 +17 +19 1018.4 1005.2

 

Местоположение метеостанции St. John's (Канада): широта 45.33 долгота -65.88 высота над уровнем моря 109 м.

В архиве по умолчанию представлена погода в St. John's за последнюю неделю. Архивные данные за месяц целиком и за предыдущие месяцы, начиная с января 2011 года, Вы можете получить, выбрав интересующий диапазон дат из раскрывающегося списка и нажав кнопку "Ввод!".


*Определитесь, кто Вы:
робот инопланетянин человек

Внимание! Время в таблицах - всемирное. Для получения местного времени необходимо прибавить поправку, которая в St. John's равна -4 ч.

Смотрите также архив погоды в соседних городах и на ближайших метеорологических станциях:

Погода в Point Lepreau Cs (Канада) (53 км)
Погода в Mechanic Settlement (Канада) (69 км)
Погода в Gagetown Airport (Канада) (70 км)
Погода в Fundy Park Cs (Канада) (79 км)
Погода в Fredericton (Канада) (79 км)
Погода в Greenwood (Канада) (85 км)
Погода в Frederickton Cda Cs (Канада) (86 км)
Погода в Grand Manan (Канада) (99 км)
Погода в Chipman Radar (Канада) (100 км)
Погода в St. Stephen (Канада) (108 км)

Пояснения к столбцам:

Ветер - указаны скорость ветра в м/с - средняя за 10 мин, порывы в срок и между сроками (в фигурных скобках) и направление, откуда дует ветер: С - северный, СВ - северо-восточный, В - восточный, ЮВ - юго-восточный, Ю - южный, ЮЗ - юго-западный, З - западный, СЗ - северо-западный.
Видимость - горизонтальная дальность видимости в метрах или километрах. При видимости от 1 до 10 км при отсутствии осадков обычно наблюдается дымка, при ухудшении видимости до 1 км и менее - туман. В сухую погоду видимость может ухудшаться дымом, пылью или мглою.
Явления - указаны атмосферные явления, наблюдавшиеся в срок или в последний час перед сроком; фигурными скобками обозначены явления, наблюдавшиеся между сроками (за 1-3 часа до срока); квадратными скобками обозначены град или гололедные отложения с указанием их диаметра в мм.
Облачность - указаны через наклонную черту общая и нижняя облачность в баллах и высота нижней границы облаков в метрах; квадратными скобками обозначены формы облаков: Ci - перистые, Cs - перисто-слоистые, Cc - перисто-кучевые, Ac - высококучевые, As - высокослоистые, Sc - слоисто-кучевые, Ns - слоисто-дождевые, Cu - кучевые, Cb - кучево-дождевые. Подробнее классификацию облаков см. в Атласе облаков (PDF).
T - Температура воздуха - температура, измеренная на высоте 2 м над землей.
Td - Температура точки росы - температура, при понижении до которой содержащийся в воздухе водяной пар достигнет насыщения.
f - Относительная влажность воздуха - влажноcть воздуха, измеренная на высоте 2 м над землей.
Te - Эффективная температура - температура, которую ощущает одетый по сезону человек в тени. Характеристика душности погоды. При расчете учитывается влияние влажности воздуха и скорости ветра на теплоощущения человека.
Tes - Эффективная температура на солнце - температура, которую ощущает человек, с поправкой на солнечный нагрев. Характеристика знойности погоды. Зависит от высоты солнца над горизонтом, облачности и скорости ветра. Ночью, в пасмурную погоду, а также при ветре 12 м/с и более поправка равна нулю.
P - Атмосферное давление - приведенное к уровню моря атмосферное давление.
Po - Атмосферное давление - измеренное на уровне метеостанции атмосферное давление.
Tmin - Минимальная температура - минимум температуры воздуха на высоте 2 м над землей.
Tmax - Максимальная температура - максимум температуры воздуха на высоте 2 м над землей.
R - Количество осадков - Количество выпавших осадков за период времени, мм. При наведении курсора мыши на число - период времени, за который выпало указанное количество осадков.
R24 - Количество осадков - Количество выпавших осадков за 24 часа, мм.
S - Снежный покров - Высота снежного покрова, см. При наведении курсора мыши на число - состояние снежного покрова и степень покрытия местности в баллах.